Regional Weather Roundup
Issued by NWS

Home | Current Version | Previous Version | Text Only | Print | Product List | Glossary On
Versions: 1 2 3 4 5 6 7 8 9 10 11 12 13 14 15 16 17 18 19 20 21 22 23 24 25 26 27 28 29 30 31 32 33 34 35 36 37 38 39 40 41 42 43 44 45 46 47 48 49 50
000
ASUS43 KLSX 040757
RWRMO

WEATHER SUMMARY FOR MISSOURI
NATIONAL WEATHER SERVICE SPRINGFIELD MO
200 AM CST SUN DEC 04 2016

NOTE: "FAIR" INDICATES FEW OR NO CLOUDS BELOW 12,000 FEET WITH NO
       SIGNIFICANT WEATHER AND/OR OBSTRUCTIONS TO VISIBILITY.
       CURRENT SKY AND/OR WEATHER CONDITIONS ARE NOT AVAILABLE FOR
       CHILLICOTHE AND FARMINGTON.

MOZ001>031-035>038-043-044-053-054-040900-
...NORTHERN AND WESTERN MISSOURI...

CITY           SKY/WX    TMP DP  RH WIND       PRES   REMARKS
KANSAS CTY INT RAIN      40  38  93 SE7       30.06F FOG
KANSAS C DTWN  LGT RAIN  42  39  89 SE7       30.07F
LEE`S SUMMIT   LGT RAIN  40  38  93 SE8       30.07F
ST JOSEPH      LGT RAIN  40  39  97 CALM      30.07F FOG
CHILLICOTHE      N/A     39  37  92 SE3       30.12F

$$
MOZ066>068-077>081-088>096-101>105-040900-
...SOUTHWEST MISSOURI...

CITY           SKY/WX    TMP DP  RH WIND       PRES   REMARKS
SPRINGFIELD    CLOUDY    39  36  89 SE14      30.03F
JOPLIN         CLOUDY    40  40 100 E3        30.05R FOG

$$
MOZ032>034-039>042-045>050-055>058-069>072-040900-
...CENTRAL MISSOURI...

CITY           SKY/WX    TMP DP  RH WIND       PRES   REMARKS
COLUMBIA       NOT AVBL
JEFFERSON CITY CLOUDY    39  35  86 SE3       30.13F
ROLLA          MIX PCPN  36  35  96 SE8       30.09F FOG     WCI  30
SEDALIA        CLOUDY    40  36  86 SE7       30.10F
WHITEMAN AFB   LGT RAIN  39  39 100 SE5       30.08F
WARRENSBURG    RAIN      37  36  93 SE3       30.09F

$$
MOZ051-052-059>065-040900-
...EAST CENTRAL MISSOURI...

CITY           SKY/WX    TMP DP  RH WIND       PRES   REMARKS
ST LOUIS INTL  CLOUDY    41  32  70 E8        30.16F

$$
MOZ072>076-082>087-097>100-106>115-040900-
...SOUTH CENTRAL AND SOUTHEAST MISSOURI...

CITY           SKY/WX    TMP DP  RH WIND       PRES   REMARKS
CAPE GIRARDEAU CLOUDY    39  35  86 NE9       30.16F
POPLAR BLUFF   CLOUDY    39  38  96 NE8       30.14F FOG
WEST PLAINS    CLOUDY    37  35  92 E7        30.10F FOG

$$


USA.gov is the U.S. government's official web portal to all federal, state and local government web resources and services.